AAL1341 KEDW-KSFO

Flight info

Callsign AAL1341
Flight time 0h 50m
Altitude 38000
Route LANDO J6 AVE SERFR SERFR4
Aircraft B738/M-SDE2E3FGHIRWXY/LB1

Departure

Time 2026-05-04 00:19
Airport Edwards Air Force Base (KEDW)

Arrival

Time 2026-05-04 01:09
Airport San Francisco International Airport (KSFO)
Time Latitude Longitude Altitude Speed Heading
2026-05-04 00:13 34.89898 -117.85033 2286 ft 0 kts 347°
2026-05-04 00:17 34.89903 -117.85036 2286 ft 2 kts 331°
2026-05-04 00:17 34.89967 -117.85137 2286 ft 27 kts 299°
2026-05-04 00:17 34.89989 -117.85346 2286 ft 23 kts 255°
2026-05-04 00:17 34.89959 -117.85522 2286 ft 18 kts 253°
2026-05-04 00:18 34.89915 -117.85783 2286 ft 57 kts 257°
2026-05-04 00:18 34.89777 -117.86501 2289 ft 114 kts 259°
2026-05-04 00:18 34.89518 -117.87582 2362 ft 149 kts 252°
2026-05-04 00:18 34.89294 -117.88896 2741 ft 171 kts 259°
2026-05-04 00:19 34.89196 -117.90469 3072 ft 201 kts 264°
2026-05-04 00:19 34.89337 -117.92310 3294 ft 240 kts 286°
2026-05-04 00:19 34.90101 -117.94155 4058 ft 247 kts 293°
2026-05-04 00:19 34.90739 -117.96086 4731 ft 250 kts 281°
2026-05-04 00:20 34.91146 -117.98171 5302 ft 260 kts 278°
2026-05-04 00:20 34.91519 -118.00311 6025 ft 263 kts 278°
2026-05-04 00:20 34.91899 -118.02515 6643 ft 272 kts 277°
2026-05-04 00:20 34.92275 -118.04781 7296 ft 277 kts 277°
2026-05-04 00:21 34.92649 -118.07101 8047 ft 279 kts 277°
2026-05-04 00:21 34.93011 -118.09404 8717 ft 283 kts 278°
2026-05-04 00:21 34.93386 -118.11782 9313 ft 290 kts 278°
2026-05-04 00:21 34.93771 -118.14175 10009 ft 292 kts 278°
2026-05-04 00:22 34.94172 -118.16631 10479 ft 302 kts 278°
2026-05-04 00:22 34.94599 -118.19249 10721 ft 321 kts 278°
2026-05-04 00:22 34.95033 -118.21953 10950 ft 338 kts 278°
2026-05-04 00:22 34.95491 -118.24849 11084 ft 358 kts 278°
2026-05-04 00:23 34.95970 -118.27917 11269 ft 375 kts 278°
2026-05-04 00:23 34.96468 -118.31105 11466 ft 390 kts 278°
2026-05-04 00:23 34.96987 -118.34398 11742 ft 401 kts 279°
2026-05-04 00:23 34.97522 -118.37766 12092 ft 410 kts 279°
2026-05-04 00:24 34.98067 -118.41169 12735 ft 411 kts 278°
2026-05-04 00:24 34.98616 -118.44555 13346 ft 412 kts 278°
2026-05-04 00:24 34.99167 -118.47999 14024 ft 412 kts 279°
2026-05-04 00:24 34.99707 -118.51392 14846 ft 407 kts 278°
2026-05-04 00:25 35.00238 -118.54758 15581 ft 405 kts 278°
2026-05-04 00:25 35.00783 -118.58068 16293 ft 404 kts 281°
2026-05-04 00:25 35.01592 -118.61341 16880 ft 408 kts 290°
2026-05-04 00:25 35.02857 -118.64490 17475 ft 411 kts 296°
2026-05-04 00:26 35.04247 -118.67516 18138 ft 409 kts 296°
2026-05-04 00:26 35.05608 -118.70523 18722 ft 408 kts 294°
2026-05-04 00:26 35.06988 -118.73584 19273 ft 409 kts 294°
2026-05-04 00:26 35.08374 -118.76605 19688 ft 412 kts 294°
2026-05-04 00:27 35.09777 -118.79590 20400 ft 408 kts 294°
2026-05-04 00:27 35.11211 -118.82577 21122 ft 403 kts 294°
2026-05-04 00:27 35.12626 -118.85537 21437 ft 408 kts 294°
2026-05-04 00:27 35.14033 -118.88532 21729 ft 412 kts 292°
2026-05-04 00:28 35.15461 -118.91609 22003 ft 416 kts 293°
2026-05-04 00:28 35.16875 -118.94627 22719 ft 410 kts 292°
2026-05-04 00:28 35.18296 -118.97631 23132 ft 411 kts 292°
2026-05-04 00:28 35.19736 -119.00692 23502 ft 414 kts 292°
2026-05-04 00:29 35.21155 -119.03719 23792 ft 417 kts 292°
2026-05-04 00:29 35.22598 -119.06805 24096 ft 419 kts 292°
2026-05-04 00:29 35.24037 -119.09877 24537 ft 419 kts 292°
2026-05-04 00:29 35.25495 -119.13001 24796 ft 423 kts 292°
2026-05-04 00:30 35.26944 -119.16116 24983 ft 427 kts 291°
2026-05-04 00:30 35.28414 -119.19268 25440 ft 426 kts 292°
2026-05-04 00:30 35.29879 -119.22379 25934 ft 423 kts 292°
2026-05-04 00:30 35.31350 -119.25521 26096 ft 428 kts 292°
2026-05-04 00:31 35.32814 -119.28683 26329 ft 431 kts 291°
2026-05-04 00:31 35.34298 -119.31902 26756 ft 430 kts 292°
2026-05-04 00:31 35.35762 -119.35052 27295 ft 425 kts 291°
2026-05-04 00:31 35.37213 -119.38145 27861 ft 420 kts 292°
2026-05-04 00:32 35.38667 -119.41223 28380 ft 416 kts 291°
2026-05-04 00:32 35.40110 -119.44288 28873 ft 412 kts 291°
2026-05-04 00:32 35.41512 -119.47308 29413 ft 407 kts 291°
2026-05-04 00:32 35.42891 -119.50311 29894 ft 402 kts 290°
2026-05-04 00:33 35.44245 -119.53286 30236 ft 401 kts 290°
2026-05-04 00:33 35.46981 -119.59229 30877 ft 400 kts 290°
2026-05-04 00:33 35.48361 -119.62191 31120 ft 401 kts 291°
2026-05-04 00:34 35.49761 -119.65174 31399 ft 401 kts 290°
2026-05-04 00:34 35.51134 -119.68125 31679 ft 401 kts 290°
2026-05-04 00:34 35.52501 -119.71084 31949 ft 401 kts 290°
2026-05-04 00:34 35.53878 -119.74070 32209 ft 401 kts 289°
2026-05-04 00:35 35.55249 -119.77070 32447 ft 402 kts 289°
2026-05-04 00:35 35.56593 -119.80034 32706 ft 402 kts 289°
2026-05-04 00:35 35.57950 -119.83038 33031 ft 401 kts 289°
2026-05-04 00:35 35.59294 -119.86006 33366 ft 399 kts 289°
2026-05-04 00:36 35.60642 -119.88963 33775 ft 396 kts 289°
2026-05-04 00:36 35.62012 -119.91923 33887 ft 400 kts 290°
2026-05-04 00:36 35.63389 -119.94885 33891 ft 402 kts 289°
2026-05-04 00:37 35.65717 -120.00995 33903 ft 390 kts 282°
2026-05-04 00:37 35.67577 -120.07252 33899 ft 388 kts 282°
2026-05-04 00:38 35.69547 -120.13436 33911 ft 391 kts 282°
2026-05-04 00:38 35.71471 -120.19697 33910 ft 393 kts 282°
2026-05-04 00:39 35.73379 -120.25927 33907 ft 390 kts 282°
2026-05-04 00:39 35.75296 -120.32159 33907 ft 390 kts 282°
2026-05-04 00:40 35.77203 -120.38406 33926 ft 394 kts 282°
2026-05-04 00:40 35.79146 -120.44727 33933 ft 391 kts 283°
2026-05-04 00:41 35.81081 -120.50949 33927 ft 389 kts 282°
2026-05-04 00:41 35.82976 -120.57185 33935 ft 393 kts 282°
2026-05-04 00:42 35.84906 -120.63483 33945 ft 394 kts 282°
2026-05-04 00:42 35.86850 -120.69795 33939 ft 391 kts 282°
2026-05-04 00:43 35.88714 -120.76036 33939 ft 389 kts 281°
2026-05-04 00:43 35.90585 -120.82285 33932 ft 391 kts 282°
2026-05-04 00:44 35.92530 -120.88555 33931 ft 394 kts 282°
2026-05-04 00:44 35.94422 -120.94905 33932 ft 395 kts 281°
2026-05-04 00:45 35.96354 -121.01228 33931 ft 398 kts 285°
2026-05-04 00:45 35.97841 -121.04181 33939 ft 416 kts 300°
2026-05-04 00:45 35.99894 -121.06747 33936 ft 426 kts 305°
2026-05-04 00:46 36.04137 -121.11826 33937 ft 425 kts 302°
2026-05-04 00:46 36.08242 -121.17094 33949 ft 429 kts 303°
2026-05-04 00:47 36.12443 -121.22393 33935 ft 428 kts 303°
2026-05-04 00:47 36.16599 -121.27606 33923 ft 429 kts 303°
2026-05-04 00:48 36.20785 -121.32922 33934 ft 433 kts 304°
2026-05-04 00:48 36.24971 -121.38251 33936 ft 430 kts 304°
2026-05-04 00:49 36.29108 -121.43535 33808 ft 428 kts 304°
2026-05-04 00:49 36.31155 -121.46142 33293 ft 424 kts 303°
2026-05-04 00:49 36.33217 -121.48782 32619 ft 424 kts 303°
2026-05-04 00:49 36.35250 -121.51414 31852 ft 425 kts 303°
2026-05-04 00:50 36.37289 -121.54079 31019 ft 429 kts 304°
2026-05-04 00:50 36.39345 -121.56754 30142 ft 433 kts 305°
2026-05-04 00:50 36.41434 -121.59462 29209 ft 439 kts 306°
2026-05-04 00:50 36.43523 -121.62161 28260 ft 445 kts 307°
2026-05-04 00:51 36.45699 -121.64954 27222 ft 453 kts 309°
2026-05-04 00:51 36.47928 -121.67690 26181 ft 461 kts 312°
2026-05-04 00:51 36.50370 -121.70284 25502 ft 460 kts 319°
2026-05-04 00:51 36.52969 -121.72478 25259 ft 448 kts 324°
2026-05-04 00:52 36.55586 -121.74509 25069 ft 434 kts 324°
2026-05-04 00:52 36.58104 -121.76488 24779 ft 423 kts 324°
2026-05-04 00:52 36.60522 -121.78434 24450 ft 415 kts 326°
2026-05-04 00:52 36.63159 -121.79939 23910 ft 416 kts 345°
2026-05-04 00:53 36.65990 -121.80370 23549 ft 408 kts 358°
2026-05-04 00:53 36.68786 -121.80456 23099 ft 403 kts 358°
2026-05-04 00:53 36.71589 -121.80638 22502 ft 401 kts 356°
2026-05-04 00:53 36.74367 -121.80881 21910 ft 399 kts 356°
2026-05-04 00:54 36.77123 -121.81120 21377 ft 396 kts 356°
2026-05-04 00:54 36.79842 -121.81332 20804 ft 394 kts 357°
2026-05-04 00:54 36.82567 -121.81530 20297 ft 390 kts 357°
2026-05-04 00:54 36.85267 -121.81737 19797 ft 386 kts 357°
2026-05-04 00:55 36.87964 -121.81950 19184 ft 385 kts 357°
2026-05-04 00:55 36.90608 -121.82162 18591 ft 384 kts 358°
2026-05-04 00:55 36.93277 -121.82379 18049 ft 381 kts 358°
2026-05-04 00:55 36.95875 -121.82591 17552 ft 378 kts 358°
2026-05-04 00:56 36.98525 -121.82810 16978 ft 376 kts 357°
2026-05-04 00:56 37.01116 -121.83022 16464 ft 372 kts 358°
2026-05-04 00:56 37.03695 -121.83225 15888 ft 371 kts 358°
2026-05-04 00:56 37.06242 -121.83421 15377 ft 368 kts 358°
2026-05-04 00:57 37.08783 -121.83627 14905 ft 365 kts 357°
2026-05-04 00:57 37.11325 -121.83841 14447 ft 360 kts 357°
2026-05-04 00:57 37.13801 -121.84045 13895 ft 359 kts 357°
2026-05-04 00:57 37.16295 -121.84243 13328 ft 358 kts 358°
2026-05-04 00:58 37.18761 -121.84442 12836 ft 355 kts 357°
2026-05-04 00:58 37.21212 -121.84645 12416 ft 350 kts 358°
2026-05-04 00:58 37.23637 -121.84845 11961 ft 346 kts 358°
2026-05-04 00:58 37.25980 -121.85035 11729 ft 336 kts 358°
2026-05-04 00:59 37.28267 -121.85220 11588 ft 323 kts 358°
2026-05-04 00:59 37.30491 -121.85401 11438 ft 312 kts 358°
2026-05-04 00:59 37.32624 -121.85576 11274 ft 302 kts 358°
2026-05-04 00:59 37.34703 -121.85744 10993 ft 297 kts 358°
2026-05-04 01:00 37.36752 -121.85912 10662 ft 293 kts 357°
2026-05-04 01:00 37.38755 -121.86385 9995 ft 298 kts 339°
2026-05-04 01:00 37.40505 -121.87807 9263 ft 302 kts 312°
2026-05-04 01:00 37.41709 -121.89943 8517 ft 305 kts 298°
2026-05-04 01:01 37.42594 -121.92333 7930 ft 300 kts 284°
2026-05-04 01:01 37.42863 -121.94876 7548 ft 288 kts 271°
2026-05-04 01:01 37.43185 -121.97308 7160 ft 283 kts 291°
2026-05-04 01:01 37.44250 -121.99381 6806 ft 280 kts 313°
2026-05-04 01:02 37.45571 -122.01161 6440 ft 278 kts 311°
2026-05-04 01:02 37.46780 -122.03041 6062 ft 277 kts 306°
2026-05-04 01:02 37.47844 -122.04978 5697 ft 260 kts 302°
2026-05-04 01:02 37.48782 -122.06835 5298 ft 241 kts 301°
2026-05-04 01:03 37.49601 -122.08577 4905 ft 226 kts 297°
2026-05-04 01:03 37.50325 -122.10263 4513 ft 214 kts 297°
2026-05-04 01:03 37.51014 -122.11868 4144 ft 203 kts 296°
2026-05-04 01:03 37.51665 -122.13400 3864 ft 189 kts 296°
2026-05-04 01:04 37.52275 -122.14835 3595 ft 187 kts 296°
2026-05-04 01:04 37.52871 -122.16238 3339 ft 182 kts 296°
2026-05-04 01:04 37.53468 -122.17644 3107 ft 182 kts 296°
2026-05-04 01:04 37.54061 -122.19045 2859 ft 181 kts 296°
2026-05-04 01:05 37.54656 -122.20445 2624 ft 180 kts 296°
2026-05-04 01:05 37.55243 -122.21831 2384 ft 179 kts 296°
2026-05-04 01:05 37.55822 -122.23196 2215 ft 168 kts 296°
2026-05-04 01:05 37.56354 -122.24458 1920 ft 156 kts 296°
2026-05-04 01:06 37.56829 -122.25581 1720 ft 137 kts 296°
2026-05-04 01:06 37.57299 -122.26660 1200 ft 149 kts 297°
2026-05-04 01:06 37.57734 -122.27788 1140 ft 139 kts 290°
2026-05-04 01:06 37.58155 -122.28873 1020 ft 136 kts 300°
2026-05-04 01:07 37.58713 -122.29844 912 ft 137 kts 300°
2026-05-04 01:07 37.59085 -122.30911 943 ft 134 kts 284°
2026-05-04 01:07 37.59462 -122.32045 811 ft 148 kts 300°
2026-05-04 01:07 37.60038 -122.33160 637 ft 151 kts 296°
2026-05-04 01:08 37.60492 -122.34315 344 ft 144 kts 295°
2026-05-04 01:08 37.60994 -122.35347 107 ft 136 kts 297°
2026-05-04 01:08 37.61412 -122.36395 13 ft 125 kts 295°
2026-05-04 01:08 37.61720 -122.37157 16 ft 65 kts 297°
2026-05-04 01:09 37.61857 -122.37508 23 ft 27 kts 294°
2026-05-04 01:09 37.61897 -122.37737 27 ft 23 kts 269°
2026-05-04 01:09 37.61882 -122.37921 31 ft 20 kts 268°
2026-05-04 01:09 37.61911 -122.38083 32 ft 19 kts 295°
2026-05-04 01:10 37.61971 -122.38252 32 ft 22 kts 290°
2026-05-04 01:10 37.62035 -122.38442 32 ft 26 kts 291°
2026-05-04 01:10 37.62140 -122.38661 32 ft 27 kts 300°
2026-05-04 01:10 37.62223 -122.38853 32 ft 22 kts 301°
2026-05-04 01:11 37.62224 -122.39064 31 ft 30 kts 235°
2026-05-04 01:11 37.62076 -122.39199 32 ft 22 kts 204°
2026-05-04 01:11 37.61963 -122.39189 32 ft 14 kts 115°
2026-05-04 01:11 37.61938 -122.39082 32 ft 11 kts 98°
2026-05-04 01:12 37.61958 -122.38995 32 ft 10 kts 43°
2026-05-04 01:12 37.62008 -122.38948 32 ft 7 kts 31°
2026-05-04 01:12 37.62026 -122.38933 32 ft 0 kts 37°
2026-05-04 01:12 37.62025 -122.38934 32 ft 0 kts 31°
2026-05-04 01:13 37.62027 -122.38934 32 ft 0 kts 32°